Weather History for Sheridan, WY

Change the Weather History Date:

Saturday, November 9, 2013

  Actual Average Record
Temperature  
Mean Temperature 36 °F 36 °F  
Max Temperature 47 °F 50 °F 73 °F (2001)
Min Temperature 25 °F 22 °F -9 °F (1966)
Degree Days  
Heating Degree Days 29 29  
Month to date heating degree days 258 245  
Since 1 July heating degree days 1120 1153  
Cooling Degree Days 0 0  
Month to date cooling degree days 0 0  
Year to date cooling degree days 592 419  
Moisture  
Dew Point 24 °F    
Average Humidity 59    
Maximum Humidity 81    
Minimum Humidity 37    
Precipitation  
Precipitation 0.00 in 0.02 in 0.85 in (1978)
Month to date precipitation 0.06 0.23  
Year to date precipitation 16.78 13.12  
Sea Level Pressure  
Sea Level Pressure 30.22 in    
Wind  
Wind Speed 4 mph (SW)    
Max Wind Speed 10 mph    
Max Gust Speed 13 mph    
Visibility 10 miles    
Events      
T = Trace of Precipitation, MM = Missing Value Source: NWS Daily Summary

Daily Weather History Graph

Daily Weather History Graph

Search for Another Location

Airport:

Trip Planner

Search our weather history database for the weather conditions in past years. The results will help you decide how hot, cold, wet, or windy it might be!

Date:

Astronomy

Nov. 09, 2013 Rise Set
Actual Time 6:57 AM MST 4:45 PM MST
Civil Twilight 6:26 AM MST 5:16 PM MST
Nautical Twilight 5:50 AM MST 5:51 PM MST
Astronomical Twilight 5:16 AM MST 6:26 PM MST
Moon 12:33 PM MST (11/9) 11:23 PM MST (11/9)
Length of Visible Light 10h 50m
Length of Day
9h 48m
Waxing Crescent, 45% of the Moon is Illuminated
Nov 9
Waxing Crescent
Nov 9
First Quarter
Nov 17
Full
Nov 25
Last Quarter
Dec 2
New

Hourly Weather History & Observations

Time (MST) Temp. Windchill Dew Point Humidity Pressure Visibility Wind Dir Wind Speed Gust Speed Precip Events Conditions
12:53 AM 34.0 °F 29.8 °F 24.1 °F 67% 30.08 in 10.0 mi NNE 4.6 mph - N/A   Mostly Cloudy
1:53 AM 37.0 °F 30.4 °F 27.0 °F 67% 30.10 in 10.0 mi WNW 9.2 mph - N/A   Overcast
2:53 AM 37.0 °F 33.3 °F 26.1 °F 65% 30.12 in 10.0 mi WNW 4.6 mph - N/A   Overcast
3:53 AM 37.0 °F 32.4 °F 27.0 °F 67% 30.14 in 10.0 mi NW 5.8 mph - N/A   Overcast
4:53 AM 37.0 °F 33.3 °F 26.1 °F 65% 30.17 in 10.0 mi WNW 4.6 mph - N/A   Overcast
5:53 AM 36.0 °F 29.6 °F 26.1 °F 67% 30.23 in 10.0 mi WNW 8.1 mph - N/A   Overcast
6:53 AM 36.0 °F - 26.1 °F 67% 30.25 in 10.0 mi Calm Calm - N/A   Overcast
7:53 AM 37.0 °F - 25.0 °F 62% 30.26 in 10.0 mi Calm Calm - N/A   Overcast
8:53 AM 37.0 °F - 27.0 °F 67% 30.28 in 10.0 mi Calm Calm - N/A   Overcast
9:53 AM 39.0 °F - 24.1 °F 55% 30.27 in 10.0 mi Calm Calm - N/A   Overcast
10:53 AM 39.9 °F 37.8 °F 25.0 °F 55% 30.28 in 10.0 mi NNE 3.5 mph - N/A   Overcast
11:53 AM 42.1 °F 39.2 °F 25.0 °F 51% 30.28 in 10.0 mi SSE 4.6 mph - N/A   Overcast
12:53 PM 45.0 °F 42.6 °F 23.0 °F 42% 30.24 in 10.0 mi Variable 4.6 mph - N/A   Mostly Cloudy
1:53 PM 46.9 °F - 21.0 °F 36% 30.24 in 10.0 mi NNE 3.5 mph - N/A   Clear
2:53 PM 45.0 °F - 19.9 °F 37% 30.23 in 10.0 mi Calm Calm - N/A   Scattered Clouds
3:53 PM 45.0 °F 41.8 °F 21.9 °F 40% 30.23 in 10.0 mi East 5.8 mph - N/A   Clear
4:53 PM 41.0 °F 39.0 °F 23.0 °F 49% 30.24 in 10.0 mi SE 3.5 mph - N/A   Clear
5:53 PM 34.0 °F 29.8 °F 24.1 °F 67% 30.27 in 10.0 mi South 4.6 mph - N/A   Clear
6:53 PM 35.1 °F 31.0 °F 24.1 °F 64% 30.26 in 10.0 mi ESE 4.6 mph - N/A   Clear
7:53 PM 33.1 °F 27.7 °F 23.0 °F 66% 30.25 in 10.0 mi South 5.8 mph - N/A   Clear
8:53 PM 27.0 °F 19.5 °F 21.9 °F 81% 30.26 in 10.0 mi SW 6.9 mph - N/A   Clear
9:53 PM 30.0 °F 24.1 °F 21.9 °F 72% 30.22 in 10.0 mi South 5.8 mph - N/A   Clear
10:53 PM 26.1 °F - 21.0 °F 81% 30.23 in 10.0 mi Calm Calm - N/A   Clear
11:53 PM 26.1 °F - 21.0 °F 81% 30.22 in 10.0 mi Calm Calm - N/A   Clear